Location: Barrialito
(9.8982°N, 67.7750°W)
Time: 20:04:54
(UTC+00:00)

STARLINK-31720 - Pass Details

Date: 18 April 2024
Orbit: 443 x 445 km, 43.0° (Epoch: 25 May)

Event Time Altitude Azimuth Distance (km) Brightness Sun altitude
Rises 23:01:27 0° 322° (NW) 2,428 7.8 -5.6°
Reaches altitude 10° 23:03:38 10° 327° (NNW) 1,560 6.7 -6.1°
Maximum altitude 23:07:04 50° 43° (NE) 574 3.5 -6.9°
Drops below altitude 10° 23:10:32 10° 120° (ESE) 1,564 5.3 -7.8°
Enters shadow 23:10:44 - 121° (ESE) 1,645 5.4 -7.8°
